| time (UTC) | temp F | wind direction | speed MPH | gust MPH | rain 1hr in | rain 24hr in | rain mn in | humidity % | barometer mb |
| 20260509063219 | 50 | 15 | 0.0 | 0.0 | 0.00 | 0.02 | 0.01 | 92 | 1017.8 |
| 20260509062226 | 48 | 15 | 0.0 | 0.0 | 0.00 | 0.02 | 0.01 | 93 | 1017.8 |
| 20260509061713 | 47 | 15 | 0.0 | 0.0 | 0.00 | 0.02 | 0.01 | 93 | 1017.8 |
| 20260509061216 | 47 | 15 | 0.0 | 0.0 | 0.00 | 0.02 | 0.01 | 93 | 1017.8 |
| 20260509060728 | 46 | 15 | 0.0 | 0.0 | 0.00 | 0.02 | 0.01 | 93 | 1017.7 |
| 20260509055720 | 46 | 15 | 0.0 | 0.0 | 0.00 | 0.02 | 0.01 | 92 | 1017.5 |
| 20260509055221 | 45 | 15 | 0.0 | 0.0 | 0.00 | 0.02 | 0.01 | 92 | 1017.5 |
| 20260509054722 | 45 | 15 | 0.0 | 0.0 | 0.00 | 0.02 | 0.01 | 92 | 1017.5 |
| 20260509053719 | 45 | 15 | 0.0 | 0.0 | 0.00 | 0.02 | 0.01 | 92 | 1017.7 |
| 20260509053223 | 45 | 15 | 0.0 | 0.0 | 0.00 | 0.02 | 0.01 | 92 | 1017.5 |
| 20260509052726 | 45 | 15 | 0.0 | 0.0 | 0.00 | 0.02 | 0.01 | 91 | 1017.5 |
| 20260509052212 | 45 | 15 | 0.0 | 0.0 | 0.00 | 0.02 | 0.01 | 91 | 1017.5 |
| 20260509051749 | 45 | 15 | 0.0 | 0.0 | 0.00 | 0.02 | 0.01 | 91 | 1017.5 |
| 20260509050709 | 44 | 15 | 0.0 | 0.0 | 0.00 | 0.02 | 0.01 | 91 | 1017.4 |
| 20260509050224 | 45 | 15 | 0.0 | 0.0 | 0.00 | 0.02 | 0.01 | 91 | 1017.4 |
| 20260509045712 | 45 | 15 | 0.0 | 0.0 | 0.00 | 0.02 | 0.01 | 91 | 1017.4 |
| 20260509045216 | 45 | 15 | 0.0 | 0.0 | 0.00 | 0.02 | 0.01 | 91 | 1017.4 |
| 20260509044727 | 45 | 15 | 0.0 | 0.0 | 0.00 | 0.02 | 0.01 | 91 | 1017.3 |
| 20260509043730 | 45 | 13 | 0.0 | 0.0 | 0.00 | 0.02 | 0.01 | 91 | 1017.2 |
| 20260509043218 | 45 | 13 | 0.0 | 0.0 | 0.00 | 0.02 | 0.01 | 91 | 1017.1 |
| 20260509042714 | 45 | 13 | 0.0 | 0.0 | 0.00 | 0.02 | 0.01 | 91 | 1017.1 |
| 20260509042223 | 45 | 13 | 0.0 | 0.0 | 0.00 | 0.02 | 0.01 | 91 | 1017.1 |
| 20260509041223 | 45 | 13 | 0.0 | 0.0 | 0.00 | 0.02 | 0.01 | 91 | 1017.0 |
| 20260509040718 | 45 | 5 | 0.0 | 0.0 | 0.00 | 0.02 | 0.01 | 91 | 1017.0 |
| 20260509040224 | 45 | 5 | 0.0 | 0.0 | 0.00 | 0.02 | 0.01 | 91 | 1017.1 |
| 20260509035723 | 45 | 5 | 0.0 | 0.0 | 0.00 | 0.02 | 0.01 | 91 | 1017.0 |
| 20260509035219 | 45 | 5 | 0.0 | 0.0 | 0.00 | 0.02 | 0.01 | 91 | 1017.1 |
| 20260509034713 | 45 | 5 | 0.0 | 0.0 | 0.00 | 0.02 | 0.01 | 91 | 1017.1 |
| 20260509034231 | 45 | 5 | 0.0 | 0.0 | 0.00 | 0.02 | 0.01 | 91 | 1017.1 |
| 20260509033224 | 45 | 5 | 0.0 | 0.0 | 0.00 | 0.02 | 0.01 | 91 | 1017.2 |
| 20260509032722 | 45 | 336 | 0.0 | 0.0 | 0.00 | 0.02 | 0.01 | 91 | 1017.2 |
| 20260509032211 | 45 | 331 | 0.0 | 0.0 | 0.00 | 0.02 | 0.01 | 91 | 1017.2 |
| 20260509031722 | 45 | 331 | 0.0 | 0.0 | 0.00 | 0.02 | 0.01 | 91 | 1017.2 |
| 20260509031215 | 45 | 331 | 0.0 | 0.0 | 0.00 | 0.02 | 0.01 | 91 | 1017.3 |
| 20260509030720 | 45 | 331 | 0.0 | 0.0 | 0.00 | 0.02 | 0.01 | 91 | 1017.3 |
| 20260509030221 | 45 | 331 | 0.0 | 0.0 | 0.00 | 0.02 | 0.01 | 91 | 1017.4 |
| 20260509025727 | 45 | 350 | 0.0 | 0.0 | 0.01 | 0.02 | 0.01 | 91 | 1017.4 |
| 20260509025238 | 45 | 350 | 0.0 | 0.0 | 0.01 | 0.02 | 0.01 | 91 | 1017.4 |
| 20260509024717 | 45 | 350 | 0.0 | 0.0 | 0.01 | 0.02 | 0.01 | 91 | 1017.4 |
| 20260509024219 | 45 | 350 | 0.0 | 0.0 | 0.01 | 0.02 | 0.01 | 91 | 1017.4 |
| 20260509023724 | 45 | 98 | 0.0 | 0.0 | 0.01 | 0.02 | 0.01 | 90 | 1017.4 |
| 20260509022227 | 46 | 98 | 0.0 | 0.0 | 0.01 | 0.02 | 0.01 | 90 | 1017.4 |
| 20260509021715 | 46 | 98 | 0.0 | 0.0 | 0.01 | 0.02 | 0.01 | 90 | 1017.4 |
| 20260509021232 | 46 | 98 | 0.0 | 0.0 | 0.01 | 0.02 | 0.01 | 90 | 1017.4 |
| 20260509020708 | 46 | 98 | 0.0 | 0.0 | 0.01 | 0.02 | 0.01 | 90 | 1017.4 |
| 20260509020212 | 46 | 98 | 0.0 | 0.0 | 0.01 | 0.02 | 0.01 | 90 | 1017.3 |
| 20260509015726 | 46 | 98 | 0.0 | 0.0 | 0.00 | 0.02 | 0.00 | 90 | 1017.3 |
| 20260509015214 | 46 | 98 | 0.0 | 0.0 | 0.00 | 0.02 | 0.00 | 89 | 1017.3 |
| 20260509013721 | 46 | 98 | 0.0 | 0.0 | 0.00 | 0.02 | 0.00 | 89 | 1017.3 |
| 20260509013218 | 46 | 98 | 0.0 | 0.0 | 0.00 | 0.02 | 0.00 | 89 | 1017.4 |
| 20260509012222 | 46 | 98 | 0.0 | 0.0 | 0.00 | 0.02 | 0.00 | 88 | 1017.4 |
| 20260509011721 | 47 | 98 | 0.0 | 0.0 | 0.00 | 0.02 | 0.00 | 88 | 1017.4 |
| 20260509011221 | 47 | 98 | 0.0 | 0.0 | 0.00 | 0.02 | 0.00 | 88 | 1017.4 |
| 20260509010220 | 47 | 98 | 0.0 | 0.0 | 0.00 | 0.02 | 0.00 | 88 | 1017.4 |
| 20260509005711 | 47 | 98 | 0.0 | 0.0 | 0.00 | 0.02 | 0.00 | 88 | 1017.5 |
| 20260509005223 | 47 | 98 | 0.0 | 0.0 | 0.00 | 0.02 | 0.00 | 88 | 1017.5 |
| 20260509004717 | 47 | 98 | 0.0 | 0.0 | 0.00 | 0.02 | 0.00 | 88 | 1017.5 |
| 20260509004223 | 47 | 98 | 0.0 | 0.0 | 0.00 | 0.02 | 0.00 | 88 | 1017.7 |
| 20260509003712 | 47 | 98 | 0.0 | 0.0 | 0.00 | 0.02 | 0.00 | 88 | 1017.5 |
| 20260509003213 | 48 | 98 | 0.0 | 0.0 | 0.00 | 0.02 | 0.00 | 88 | 1017.5 |
| 20260509002724 | 48 | 98 | 0.0 | 0.0 | 0.00 | 0.02 | 0.00 | 88 | 1017.5 |
| 20260509002221 | 48 | 98 | 0.0 | 0.0 | 0.00 | 0.02 | 0.00 | 88 | 1017.5 |
| 20260509001728 | 48 | 98 | 0.0 | 0.0 | 0.00 | 0.02 | 0.00 | 88 | 1017.5 |
| 20260509001210 | 48 | 98 | 0.0 | 0.0 | 0.00 | 0.02 | 0.00 | 88 | 1017.5 |
| 20260509000718 | 48 | 98 | 0.0 | 0.0 | 0.00 | 0.02 | 0.00 | 88 | 1017.5 |
| 20260509000220 | 48 | 98 | 0.0 | 0.0 | 0.00 | 0.02 | 0.00 | 87 | 1017.5 |
| 20260508235725 | 48 | 98 | 0.0 | 0.0 | 0.00 | 0.02 | 0.00 | 88 | 1017.5 |
| 20260508235222 | 48 | 98 | 0.0 | 0.0 | 0.00 | 0.02 | 0.00 | 88 | 1017.5 |
| 20260508234709 | 49 | 98 | 0.0 | 0.0 | 0.00 | 0.02 | 0.00 | 88 | 1017.4 |
| 20260508233722 | 49 | 105 | 0.0 | 0.0 | 0.00 | 0.02 | 0.00 | 88 | 1017.7 |
| 20260508233214 | 49 | 83 | 0.0 | 0.0 | 0.00 | 0.02 | 0.00 | 88 | 1017.5 |
| 20260508232712 | 49 | 90 | 0.0 | 0.0 | 0.00 | 0.02 | 0.00 | 88 | 1017.5 |
| 20260508231728 | 49 | 90 | 0.0 | 0.0 | 0.00 | 0.02 | 0.00 | 88 | 1017.5 |
| 20260508231222 | 49 | 102 | 0.0 | 0.0 | 0.00 | 0.02 | 0.00 | 88 | 1017.5 |
| 20260508230718 | 49 | 102 | 0.0 | 0.0 | 0.00 | 0.02 | 0.00 | 88 | 1017.5 |
| 20260508225719 | 50 | 105 | 0.0 | 0.0 | 0.00 | 0.02 | 0.00 | 87 | 1017.4 |
| 20260508225225 | 50 | 101 | 0.0 | 0.0 | 0.00 | 0.02 | 0.00 | 87 | 1017.4 |
| 20260508224726 | 50 | 39 | 0.0 | 0.0 | 0.00 | 0.02 | 0.00 | 88 | 1017.4 |
| 20260508224214 | 50 | 38 | 0.0 | 0.0 | 0.00 | 0.02 | 0.00 | 88 | 1017.5 |
| 20260508223716 | 50 | 5 | 0.0 | 0.0 | 0.00 | 0.02 | 0.00 | 88 | 1017.5 |
| 20260508223216 | 50 | 50 | 0.0 | 0.0 | 0.00 | 0.02 | 0.00 | 88 | 1017.5 |
| 20260508222212 | 50 | 17 | 0.0 | 0.0 | 0.00 | 0.02 | 0.00 | 88 | 1017.5 |
| 20260508221727 | 51 | 36 | 0.0 | 0.0 | 0.00 | 0.02 | 0.00 | 87 | 1017.7 |
| 20260508220733 | 51 | 36 | 0.0 | 0.0 | 0.00 | 0.02 | 0.00 | 88 | 1017.7 |
| 20260508220224 | 51 | 36 | 0.0 | 0.0 | 0.00 | 0.02 | 0.02 | 87 | 1017.7 |
| 20260508215717 | 51 | 24 | 0.0 | 0.0 | 0.00 | 0.02 | 0.02 | 87 | 1017.7 |
| 20260508214731 | 51 | 24 | 0.0 | 0.0 | 0.00 | 0.02 | 0.02 | 86 | 1017.4 |
| 20260508214226 | 51 | 24 | 0.0 | 0.0 | 0.00 | 0.02 | 0.02 | 85 | 1017.3 |
| 20260508213718 | 51 | 24 | 0.0 | 0.0 | 0.00 | 0.02 | 0.02 | 85 | 1017.3 |
| 20260508212728 | 52 | 24 | 0.0 | 0.0 | 0.00 | 0.02 | 0.02 | 84 | 1017.2 |
| 20260508212232 | 52 | 24 | 0.0 | 0.0 | 0.00 | 0.02 | 0.02 | 84 | 1017.2 |
| 20260508210723 | 52 | 24 | 0.0 | 0.0 | 0.01 | 0.02 | 0.02 | 84 | 1017.2 |
| 20260508210221 | 52 | 20 | 0.0 | 0.0 | 0.01 | 0.02 | 0.02 | 84 | 1017.2 |
| 20260508205723 | 53 | 355 | 0.0 | 0.0 | 0.01 | 0.02 | 0.02 | 84 | 1017.1 |
| 20260508204225 | 53 | 15 | 0.0 | 3.0 | 0.01 | 0.02 | 0.02 | 85 | 1017.0 |
| 20260508203723 | 53 | 20 | 0.0 | 0.0 | 0.01 | 0.02 | 0.02 | 84 | 1016.9 |
| 20260508203225 | 54 | 17 | 0.0 | 0.0 | 0.01 | 0.02 | 0.02 | 83 | 1016.9 |
| 20260508202224 | 54 | 326 | 0.0 | 0.0 | 0.01 | 0.02 | 0.02 | 82 | 1017.0 |
| 20260508201711 | 54 | 91 | 0.0 | 0.0 | 0.01 | 0.02 | 0.02 | 82 | 1017.0 |
| 20260508201230 | 54 | 93 | 0.0 | 2.0 | 0.00 | 0.01 | 0.01 | 79 | 1017.0 |
| 20260508200715 | 54 | 98 | 0.0 | 4.0 | 0.00 | 0.01 | 0.01 | 79 | 1017.0 |
| 20260508195721 | 54 | 347 | 0.0 | 0.0 | 0.00 | 0.01 | 0.01 | 79 | 1016.7 |
| 20260508195209 | 54 | 5 | 0.0 | 0.0 | 0.00 | 0.01 | 0.01 | 79 | 1016.7 |
| 20260508194713 | 54 | 5 | 0.0 | 0.0 | 0.00 | 0.01 | 0.01 | 78 | 1016.5 |
| 20260508194229 | 55 | 64 | 0.0 | 0.0 | 0.00 | 0.01 | 0.01 | 77 | 1016.5 |
| 20260508193728 | 55 | 64 | 0.0 | 0.0 | 0.00 | 0.01 | 0.01 | 76 | 1016.5 |
| 20260508193218 | 55 | 64 | 0.0 | 0.0 | 0.00 | 0.01 | 0.01 | 76 | 1016.4 |
| 20260508192714 | 55 | 64 | 0.0 | 0.0 | 0.00 | 0.01 | 0.01 | 76 | 1016.4 |
| 20260508192217 | 55 | 64 | 0.0 | 0.0 | 0.00 | 0.01 | 0.01 | 76 | 1016.2 |
| 20260508191718 | 56 | 36 | 0.0 | 0.0 | 0.00 | 0.01 | 0.01 | 76 | 1016.1 |
| 20260508191221 | 56 | 30 | 0.0 | 0.0 | 0.00 | 0.01 | 0.01 | 77 | 1016.0 |
| 20260508190724 | 56 | 30 | 0.0 | 0.0 | 0.00 | 0.01 | 0.01 | 76 | 1016.0 |
| 20260508185716 | 56 | 30 | 0.0 | 0.0 | 0.00 | 0.01 | 0.01 | 76 | 1016.0 |
| 20260508184714 | 56 | 5 | 0.0 | 0.0 | 0.00 | 0.01 | 0.01 | 76 | 1015.9 |
| 20260508184209 | 57 | 9 | 0.0 | 0.0 | 0.00 | 0.01 | 0.01 | 75 | 1015.9 |
| 20260508183731 | 57 | 9 | 0.0 | 0.0 | 0.00 | 0.01 | 0.01 | 74 | 1015.9 |
| 20260508183209 | 57 | 0 | 0.0 | 0.0 | 0.00 | 0.01 | 0.01 | 74 | 1015.8 |
| 20260508182215 | 57 | 339 | 0.0 | 0.0 | 0.00 | 0.01 | 0.01 | 72 | 1015.7 |
| 20260508181725 | 57 | 330 | 0.0 | 0.0 | 0.00 | 0.01 | 0.01 | 72 | 1015.6 |
| 20260508181221 | 58 | 347 | 0.0 | 0.0 | 0.00 | 0.01 | 0.01 | 70 | 1015.6 |
| 20260508180721 | 58 | 339 | 0.0 | 0.0 | 0.00 | 0.01 | 0.01 | 70 | 1015.5 |
| 20260508180224 | 58 | 355 | 0.0 | 0.0 | 0.00 | 0.01 | 0.01 | 69 | 1015.4 |
| 20260508175215 | 59 | 355 | 0.0 | 0.0 | 0.00 | 0.01 | 0.01 | 67 | 1015.3 |
| 20260508174732 | 60 | 0 | 0.0 | 0.0 | 0.00 | 0.01 | 0.01 | 66 | 1015.2 |
| 20260508174231 | 60 | 0 | 0.0 | 3.0 | 0.00 | 0.01 | 0.01 | 64 | 1015.1 |
| 20260508173222 | 61 | 26 | 0.0 | 3.0 | 0.00 | 0.01 | 0.01 | 61 | 1015.0 |
| 20260508172733 | 62 | 336 | 0.0 | 0.0 | 0.00 | 0.01 | 0.01 | 60 | 1014.8 |
| 20260508172222 | 63 | 350 | 0.0 | 5.0 | 0.00 | 0.01 | 0.01 | 59 | 1014.8 |
| 20260508171712 | 63 | 355 | 1.0 | 6.0 | 0.00 | 0.01 | 0.01 | 59 | 1014.7 |
| 20260508171220 | 63 | 339 | 3.0 | 7.0 | 0.00 | 0.01 | 0.01 | 59 | 1014.8 |
| 20260508170728 | 63 | 305 | 3.0 | 7.0 | 0.00 | 0.01 | 0.01 | 58 | 1014.7 |
| 20260508170220 | 63 | 312 | 3.0 | 7.0 | 0.00 | 0.01 | 0.01 | 58 | 1014.7 |
| 20260508165736 | 63 | 307 | 3.0 | 6.0 | 0.00 | 0.01 | 0.01 | 58 | 1014.6 |
| 20260508165216 | 63 | 306 | 2.0 | 6.0 | 0.00 | 0.01 | 0.01 | 62 | 1014.6 |
| 20260508164226 | 63 | 281 | 2.0 | 8.0 | 0.00 | 0.01 | 0.01 | 62 | 1014.6 |
| 20260508163221 | 62 | 272 | 3.0 | 9.0 | 0.00 | 0.01 | 0.01 | 64 | 1014.6 |
| 20260508162713 | 62 | 298 | 3.0 | 9.0 | 0.00 | 0.01 | 0.01 | 65 | 1014.6 |
| 20260508162222 | 62 | 304 | 1.0 | 0.0 | 0.00 | 0.01 | 0.01 | 67 | 1014.6 |
| 20260508161732 | 61 | 310 | 0.0 | 5.0 | 0.00 | 0.01 | 0.01 | 70 | 1014.6 |
| 20260508161227 | 61 | 281 | 0.0 | 5.0 | 0.00 | 0.01 | 0.01 | 69 | 1014.6 |
| 20260508160719 | 61 | 327 | 1.0 | 6.0 | 0.00 | 0.01 | 0.01 | 68 | 1014.8 |
| 20260508160208 | 61 | 289 | 1.0 | 6.0 | 0.00 | 0.01 | 0.01 | 67 | 1014.7 |
| 20260508155712 | 61 | 317 | 1.0 | 6.0 | 0.00 | 0.01 | 0.01 | 67 | 1014.7 |
| 20260508154727 | 62 | 302 | 3.0 | 8.0 | 0.00 | 0.01 | 0.01 | 65 | 1014.8 |
| 20260508154214 | 62 | 299 | 3.0 | 8.0 | 0.00 | 0.01 | 0.01 | 64 | 1014.7 |
| 20260508153711 | 63 | 281 | 5.0 | 8.0 | 0.00 | 0.01 | 0.01 | 63 | 1014.7 |
| 20260508153224 | 63 | 313 | 4.0 | 8.0 | 0.00 | 0.01 | 0.01 | 64 | 1014.7 |
| 20260508152725 | 63 | 307 | 3.0 | 7.0 | 0.00 | 0.01 | 0.01 | 64 | 1014.6 |
| 20260508151715 | 61 | 296 | 2.0 | 7.0 | 0.00 | 0.01 | 0.01 | 67 | 1014.8 |
| 20260508151227 | 61 | 287 | 1.0 | 7.0 | 0.00 | 0.01 | 0.01 | 67 | 1014.8 |
| 20260508150721 | 61 | 335 | 1.0 | 7.0 | 0.00 | 0.01 | 0.01 | 68 | 1014.8 |
| 20260508150223 | 61 | 317 | 2.0 | 7.0 | 0.00 | 0.01 | 0.01 | 67 | 1014.8 |
| 20260508145722 | 61 | 311 | 3.0 | 7.0 | 0.00 | 0.01 | 0.01 | 67 | 1015.0 |
| 20260508145214 | 61 | 326 | 2.0 | 6.0 | 0.00 | 0.01 | 0.01 | 67 | 1015.0 |
| 20260508144219 | 61 | 306 | 1.0 | 6.0 | 0.00 | 0.01 | 0.01 | 66 | 1015.0 |
| 20260508143732 | 61 | 300 | 2.0 | 9.0 | 0.00 | 0.01 | 0.01 | 66 | 1015.1 |
| 20260508143215 | 61 | 309 | 3.0 | 9.0 | 0.00 | 0.01 | 0.01 | 66 | 1015.1 |
| 20260508142729 | 61 | 329 | 3.0 | 9.0 | 0.00 | 0.01 | 0.01 | 65 | 1015.1 |
| 20260508142210 | 62 | 331 | 3.0 | 8.0 | 0.00 | 0.01 | 0.01 | 64 | 1015.1 |
| 20260508141217 | 62 | 322 | 1.0 | 7.0 | 0.00 | 0.01 | 0.01 | 61 | 1015.1 |
| 20260508140731 | 63 | 325 | 1.0 | 7.0 | 0.00 | 0.01 | 0.01 | 61 | 1015.2 |
| 20260508140214 | 63 | 334 | 1.0 | 5.0 | 0.00 | 0.01 | 0.01 | 60 | 1015.2 |
| 20260508135707 | 63 | 12 | 1.0 | 5.0 | 0.00 | 0.01 | 0.01 | 56 | 1015.2 |
| 20260508135208 | 63 | 10 | 1.0 | 6.0 | 0.00 | 0.01 | 0.01 | 57 | 1015.2 |
| 20260508134713 | 64 | 258 | 2.0 | 11.0 | 0.00 | 0.01 | 0.01 | 56 | 1015.3 |
| 20260508133720 | 65 | 343 | 4.0 | 11.0 | 0.00 | 0.01 | 0.01 | 59 | 1015.3 |
| 20260508133220 | 65 | 349 | 2.0 | 8.0 | 0.00 | 0.01 | 0.01 | 59 | 1015.3 |
| 20260508132719 | 65 | 294 | 1.0 | 5.0 | 0.00 | 0.01 | 0.01 | 55 | 1015.3 |
| 20260508132223 | 64 | 280 | 2.0 | 5.0 | 0.00 | 0.01 | 0.01 | 55 | 1015.2 |
| 20260508131733 | 64 | 317 | 2.0 | 6.0 | 0.00 | 0.01 | 0.01 | 56 | 1015.3 |
| 20260508131220 | 64 | 291 | 1.0 | 8.0 | 0.00 | 0.01 | 0.01 | 58 | 1015.3 |
| 20260508130731 | 64 | 316 | 1.0 | 13.0 | 0.00 | 0.01 | 0.01 | 57 | 1015.4 |
| 20260508130220 | 64 | 355 | 3.0 | 13.0 | 0.00 | 0.01 | 0.01 | 58 | 1015.4 |
| 20260508125723 | 64 | 264 | 6.0 | 9.0 | 0.00 | 0.01 | 0.01 | 59 | 1015.5 |
| 20260508125216 | 63 | 327 | 4.0 | 8.0 | 0.00 | 0.01 | 0.01 | 60 | 1015.5 |
| 20260508124722 | 62 | 290 | 2.0 | 3.0 | 0.00 | 0.01 | 0.01 | 58 | 1015.4 |
| 20260508124216 | 62 | 300 | 1.0 | 3.0 | 0.00 | 0.01 | 0.01 | 51 | 1015.5 |
| 20260508123726 | 62 | 228 | 0.0 | 3.0 | 0.00 | 0.01 | 0.01 | 50 | 1015.5 |
| 20260508122732 | 62 | 257 | 2.0 | 7.0 | 0.00 | 0.01 | 0.01 | 48 | 1015.5 |
| 20260508122221 | 62 | 259 | 2.0 | 8.0 | 0.00 | 0.01 | 0.01 | 51 | 1015.5 |
| 20260508121721 | 62 | 273 | 1.0 | 8.0 | 0.00 | 0.01 | 0.01 | 55 | 1015.6 |
| 20260508121211 | 62 | 290 | 2.0 | 8.0 | 0.00 | 0.01 | 0.01 | 53 | 1015.5 |
| 20260508120720 | 62 | 5 | 0.0 | 6.0 | 0.00 | 0.01 | 0.01 | 55 | 1015.5 |
| 20260508120221 | 62 | 350 | 1.0 | 6.0 | 0.00 | 0.01 | 0.01 | 58 | 1015.6 |
| 20260508115713 | 62 | 330 | 1.0 | 5.0 | 0.00 | 0.01 | 0.01 | 57 | 1015.6 |
| 20260508115217 | 62 | 355 | 0.0 | 4.0 | 0.00 | 0.01 | 0.01 | 54 | 1015.6 |
| 20260508114727 | 63 | 263 | 0.0 | 4.0 | 0.00 | 0.01 | 0.01 | 54 | 1015.6 |
| 20260508113718 | 64 | 335 | 1.0 | 11.0 | 0.00 | 0.01 | 0.01 | 53 | 1015.6 |
| 20260508113224 | 64 | 334 | 2.0 | 15.0 | 0.00 | 0.01 | 0.01 | 51 | 1015.6 |
| 20260508112707 | 63 | 186 | 5.0 | 15.0 | 0.00 | 0.01 | 0.01 | 52 | 1015.6 |
| 20260508112222 | 64 | 163 | 4.0 | 10.0 | 0.00 | 0.01 | 0.01 | 49 | 1015.7 |
| 20260508111714 | 64 | 147 | 2.0 | 10.0 | 0.00 | 0.01 | 0.01 | 53 | 1015.6 |
| 20260508110711 | 63 | 158 | 5.0 | 10.0 | 0.00 | 0.01 | 0.01 | 51 | 1015.7 |
| 20260508110229 | 63 | 163 | 5.0 | 10.0 | 0.00 | 0.01 | 0.01 | 51 | 1015.7 |
| 20260508105723 | 62 | 182 | 4.0 | 12.0 | 0.00 | 0.01 | 0.01 | 57 | 1015.7 |
| 20260508104712 | 62 | 130 | 6.0 | 10.0 | 0.00 | 0.01 | 0.01 | 58 | 1015.7 |
| 20260508104219 | 62 | 138 | 5.0 | 8.0 | 0.00 | 0.01 | 0.01 | 55 | 1015.7 |
| 20260508103715 | 61 | 159 | 3.0 | 8.0 | 0.00 | 0.01 | 0.01 | 54 | 1015.8 |
| 20260508103228 | 61 | 171 | 3.0 | 7.0 | 0.00 | 0.01 | 0.01 | 57 | 1015.8 |
| 20260508102717 | 61 | 120 | 1.0 | 7.0 | 0.00 | 0.01 | 0.01 | 57 | 1015.8 |
| 20260508102207 | 60 | 173 | 1.0 | 8.0 | 0.01 | 0.01 | 0.01 | 59 | 1015.8 |
| 20260508101724 | 60 | 167 | 2.0 | 8.0 | 0.01 | 0.01 | 0.01 | 58 | 1015.9 |
| 20260508100723 | 60 | 164 | 1.0 | 8.0 | 0.01 | 0.01 | 0.01 | 56 | 1015.8 |
| 20260508095211 | 61 | 161 | 4.0 | 9.0 | 0.01 | 0.01 | 0.01 | 60 | 1015.9 |
| 20260508094730 | 60 | 182 | 5.0 | 9.0 | 0.01 | 0.01 | 0.01 | 58 | 1016.0 |
| 20260508093724 | 61 | 158 | 4.0 | 9.0 | 0.01 | 0.01 | 0.01 | 59 | 1016.1 |
| 20260508093221 | 60 | 168 | 4.0 | 9.0 | 0.01 | 0.01 | 0.01 | 61 | 1016.0 |
| 20260508092724 | 60 | 179 | 3.0 | 8.0 | 0.01 | 0.01 | 0.01 | 61 | 1016.1 |
| 20260508092231 | 61 | 168 | 2.0 | 7.0 | 0.00 | 0.00 | 0.00 | 62 | 1016.1 |
| 20260508091714 | 60 | 158 | 1.0 | 7.0 | 0.00 | 0.00 | 0.00 | 63 | 1016.1 |
| 20260508091212 | 60 | 151 | 1.0 | 6.0 | 0.00 | 0.00 | 0.00 | 61 | 1016.1 |
| 20260508090719 | 60 | 143 | 1.0 | 6.0 | 0.00 | 0.00 | 0.00 | 61 | 1016.1 |
| 20260508085710 | 59 | 188 | 1.0 | 5.0 | 0.00 | 0.00 | 0.00 | 64 | 1016.0 |
| 20260508085214 | 59 | 205 | 0.0 | 5.0 | 0.00 | 0.00 | 0.00 | 65 | 1016.1 |
| 20260508084730 | 58 | 209 | 1.0 | 5.0 | 0.00 | 0.00 | 0.00 | 66 | 1016.1 |
| 20260508084221 | 58 | 211 | 1.0 | 4.0 | 0.00 | 0.00 | 0.00 | 68 | 1016.1 |
| 20260508083730 | 58 | 157 | 1.0 | 3.0 | 0.00 | 0.00 | 0.00 | 67 | 1016.1 |
| 20260508083225 | 58 | 196 | 0.0 | 3.0 | 0.00 | 0.00 | 0.00 | 67 | 1016.0 |
| 20260508082717 | 58 | 140 | 0.0 | 5.0 | 0.00 | 0.00 | 0.00 | 66 | 1016.0 |
| 20260508082215 | 58 | 141 | 1.0 | 5.0 | 0.00 | 0.00 | 0.00 | 67 | 1016.0 |
| 20260508081706 | 57 | 169 | 1.0 | 5.0 | 0.00 | 0.00 | 0.00 | 67 | 1016.0 |
| 20260508081207 | 57 | 168 | 1.0 | 4.0 | 0.00 | 0.00 | 0.00 | 68 | 1016.0 |
| 20260508080723 | 57 | 195 | 1.0 | 4.0 | 0.00 | 0.00 | 0.00 | 70 | 1016.0 |
| 20260508080227 | 56 | 172 | 1.0 | 4.0 | 0.00 | 0.00 | 0.00 | 71 | 1016.0 |
| 20260508075713 | 56 | 175 | 1.0 | 3.0 | 0.00 | 0.00 | 0.00 | 72 | 1015.9 |
| 20260508075224 | 56 | 120 | 0.0 | 0.0 | 0.00 | 0.00 | 0.00 | 74 | 1015.9 |
| 20260508074713 | 55 | 173 | 0.0 | 0.0 | 0.00 | 0.00 | 0.00 | 74 | 1015.9 |
| 20260508073711 | 54 | 177 | 0.0 | 0.0 | 0.00 | 0.00 | 0.00 | 76 | 1015.9 |
| 20260508073218 | 54 | 172 | 0.0 | 0.0 | 0.00 | 0.00 | 0.00 | 77 | 1015.9 |
| 20260508072716 | 53 | 168 | 0.0 | 0.0 | 0.00 | 0.00 | 0.00 | 81 | 1016.0 |
| 20260508072219 | 53 | 179 | 0.0 | 0.0 | 0.00 | 0.00 | 0.00 | 84 | 1015.9 |
| 20260508071720 | 52 | 173 | 0.0 | 0.0 | 0.00 | 0.00 | 0.00 | 85 | 1015.9 |
| 20260508071230 | 51 | 157 | 0.0 | 0.0 | 0.00 | 0.00 | 0.00 | 87 | 1015.9 |
| 20260508070708 | 51 | 151 | 0.0 | 0.0 | 0.00 | 0.00 | 0.00 | 91 | 1015.9 |
| 20260508070211 | 51 | 151 | 0.0 | 0.0 | 0.00 | 0.00 | 0.00 | 94 | 1015.9 |
| 20260508065227 | 50 | 55 | 0.0 | 0.0 | 0.00 | 0.00 | 0.00 | 96 | 1015.9 |
| 20260508064216 | 48 | 55 | 0.0 | 0.0 | 0.00 | 0.01 | 0.00 | 96 | 1015.9 |
| 20260508063713 | 47 | 55 | 0.0 | 0.0 | 0.00 | 0.01 | 0.00 | 96 | 1015.9 |